Location: Asheville, NC
(35.6000°N, 82.5500°W)
Time: 05:18:07
(UTC-05:00)

N. Korean satellite - Visible Passes

Search period start: 22 February 2018 00:00
Search period end: 04 March 2018 00:00
Orbit: 459 x 514 km, 97.2° (Epoch: 21 February)

Date Brightness Start Highest point End Pass type
(mag) Time Alt. Az. Time Alt. Az. Time Alt. Az.
22 Feb 10.1 06:17:08 10° NE 06:19:35 17° E 06:22:02 10° SE visible
23 Feb 10.5 19:35:24 10° WSW 19:36:02 10° W 19:36:39 10° W visible
24 Feb 9.4 19:09:24 10° SSW 19:12:07 22° W 19:14:52 10° NW visible
25 Feb 7.7 18:44:58 10° S 18:48:17 47° W 18:51:41 10° NNW visible
26 Feb 10.1 06:15:40 10° NE 06:18:04 16° E 06:20:29 10° SE visible
27 Feb 10.4 19:33:28 10° WSW 19:34:28 11° W 19:35:27 10° WNW visible
28 Feb 9.4 19:07:45 10° SSW 19:10:33 23° W 19:13:23 10° NW visible
02 Mar 10.2 06:14:09 10° NE 06:16:31 16° E 06:18:52 10° SE visible
03 Mar 10.3 19:31:35 10° WSW 19:32:51 12° W 19:34:08 10° WNW visible
